Regional Weather Roundup
Issued by NWS Sterling, VA

Home | Current Version | Previous Version | Graphics & Text | Print | Product List | Glossary On
Versions: 1 2 3 4 5 6 7 8 9 10 11 12 13 14 15 16 17 18 19 20 21 22 23 24 25 26 27 28 29 30 31 32 33 34 35 36 37 38 39 40 41 42 43 44 45 46 47 48 49 50
000
ASUS41 KLWX 290210
RWRLWX

REGIONAL WEATHER ROUNDUP
NATIONAL WEATHER SERVICE BALTIMORE MD/WASHINGTON DC
1000 PM EDT MON JUL 28 2014

Note: "FAIR" indicates few or no clouds below 12,000 feet
with no significant weather and/or obstructions to visibility.
 TC=TEMPERATURE CELSIUS

 * =Non NWS site. Station does not report precipitation (e.g. rain,
    snow, etc.), thunder, or fog.

DCZ001-MDZ009-015-VAZ040>042-051-053>054-290300-
WASHINGTON METRO
  /KDAA//-FT BELVOIR

CITY           SKY/WX    TMP DP  RH WIND       PRES   REMARKS
WASHINGTON NAT PTCLDY    75  58  55 NW12G22   29.82R
DULLES         PTCLDY    70  57  63 NW15G23   29.83R
ANDREWS AFB    PTCLDY    72  60  64 NW14      29.81R
QUANTICO       PTCLDY    73  57  57 NW9       29.84R
COLLEGE PARK*  MOCLDY    73  61  64 NW6       29.81R
LEESBURG*      CLOUDY    70  61  73 NW10G21   29.85R
MANASSAS*      PTCLDY    72  61  68 NW13      29.83R
GAITHERSBURG*  MOCLDY    66  59  77 NW8       29.86R

$$

MDZ006>007-011-014-290300-
BALTIMORE METRO

CITY           SKY/WX    TMP DP  RH WIND       PRES   REMARKS
BWI AIRPORT    MOCLDY    71  60  68 W8G17     29.80R
MD SCIENCE CTR   N/A     72  62  71 MISG      29.80R
MARTIN STATE   MOCLDY    72  63  73 NW6G18    29.79R
ANNAPOLIS      CLOUDY    74  61  63 NW13      29.79R
FORT MEADE*    PTCLDY    70  59  68 NW7       29.83R

$$

MDZ012-015-019>023-290300-
MARYLAND EASTERN SHORE

CITY           SKY/WX    TMP DP  RH WIND       PRES   REMARKS
OCEAN CITY     CLEAR     74  60  61 W6        29.75R
SALISBURY      NOT AVBL
BAY BRIDGE AP*   N/A     73  59  60 NW20      29.79R
CAMBRIDGE*     PTCLDY    77  55  47 W9G18     29.77R
EASTON*        MOCLDY    77  61  57 NW17G25   29.81R

$$

MDZ017>025-290300-
SOUTHERN MARYLAND

CITY           SKY/WX    TMP DP  RH WIND       PRES   REMARKS
PATUXENT RIVER PTCLDY    75  56  51 W12G22    29.78R
ST INIGOES     CLEAR     76  56  49 W9G22     29.79R
LEONARDTOWN*   PTCLDY    73  55  53 W10G20    29.81R

$$

MDZ003>005-290300-
NORTH CENTRAL MARYLAND

CITY           SKY/WX    TMP DP  RH WIND       PRES   REMARKS
FREDERICK*     CLOUDY    70  64  83 W10       29.85R
HAGERSTOWN APT MOCLDY    67  58  72 NW9       29.84R
WESTMINSTER*   LGT RAIN  66  63  88 NW7       29.83R

$$

MDZ501>502-290300-
WESTERN MARYLAND

CITY           SKY/WX    TMP DP  RH WIND       PRES   REMARKS
OAKLAND*       CLOUDY    52 N/A N/A W8        29.97R FOG
CUMBERLAND*    CLOUDY    66  54  63 NW9       29.94R

$$

VAZ025>031-290300-
SHENANDOAH VALLEY

CITY           SKY/WX    TMP DP  RH WIND       PRES   REMARKS
WINCHESTER*    CLOUDY    68  55  64 NW10      29.88R
STAUNTON*      CLOUDY    69  55  60 NW9       29.93R

$$

WVZ021-048>050-054>055-290300-
EASTERN WEST VIRGINIA PANHANDLE

CITY           SKY/WX    TMP DP  RH WIND       PRES   REMARKS
MARTINSBURG    CLOUDY    69  56  62 NW10      29.87R
PETERSBURG*    MOCLDY    64  50  61 E3        29.94R

$$

VAZ036>039-050-290300-
CENTRAL FOOTHILLS

CITY           SKY/WX    TMP DP  RH WIND       PRES   REMARKS
CHARLOTTESVILL MOCLDY    69  58  67 NW6       29.87R
ORANGE*        CLEAR     70  55  60 W8        29.88R

$$

VAZ055>057-290300-
NORTH AND CENTRAL PIEDMONT

CITY           SKY/WX    TMP DP  RH WIND       PRES   REMARKS
FREDERICKSBRG* CLEAR     74  58  57 NW9       29.83R
STAFFORD*      CLEAR     70  58  65 NW9       29.88R

$$

NCZ024-NYZ072-PAZ021-071-VAZ022-071-290300-
OTHER REGIONAL OBSERVATIONS

CITY           SKY/WX    TMP DP  RH WIND       PRES   REMARKS
NEW YORK CITY  PTCLDY    71  58  63 W7        29.70R
PHILADELPHIA   MOCLDY    73  59  61 NW12      29.75R
PITTSBURGH     PTCLDY    59  53  80 NW10      29.95R
ROANOKE        MOCLDY    69  54  58 NW12      29.95R
RICHMOND       PTCLDY    78  54  43 NW9       29.82R
RALEIGH        PTCLDY    77  56  48 VRB3      29.87R

$$

ANZ530>537-290300-
MARINE OBSERVATIONS

STATION/POSITION TIME  TEMP    WIND        PRES
                       AIR SEA DIR/SP/G
                 (UTC) (F)     (DEG/KT/KT) (MB)
THOMAS PT LIGHT  0200   73 79  310/ 15/ 17 1009.2R
BALT KEY BRIDGE  0200   72     300/ 12/ 16 1008.4R
COVE POINT       0200   76     320/ 10/ 14 1008.3R
LEWISETTA        0200   77 80  300/ 11/ 13 1008.8R
SOLOMONS ISLAND  0200      80                N/A
PINEY POINT      0200          330/ 25/ 27   N/A

$$



USA.gov is the U.S. government's official web portal to all federal, state and local government web resources and services.